#timestamp,LO_Frequency,Hit,StdDev 
1562558415.6,286047002.5,N
1562558435.4,286047002.3,N
1562558455.3,286047001.0,N
1562558475.1,286047001.2,N
1562558476.0,286047001.2,N
1562558495.8,286046998.5,N
1562558515.7,286047000.8,N
1562558535.5,286047001.0,N
1562558555.4,286047002.4,N
1562558575.2,286047000.7,N
1562558595.0,286047000.2,N
1562558595.9,286047000.2,N
1562558615.8,286046998.1,N
1562558635.6,286046998.2,N
1562558655.4,286046998.9,N
1562558675.3,286047000.6,N
1562558695.1,286047001.0,N
1562558715.9,286047000.5,N
1562558735.7,286047000.9,N
1562558755.5,286047000.3,N
1562558775.4,286046998.1,N
1562558795.2,286046998.3,N
1562558815.0,286046998.9,N
1562558815.9,286046998.9,N
1562558835.8,286046999.2,N
1562558855.6,286046999.5,N
1562558875.5,286046996.6,N
1562558895.3,286046996.5,N
1562558915.1,286046996.8,N
1562558935.9,286046999.5,N
1562558955.7,286046997.0,N
1562558975.6,286046997.3,N
1562558995.4,286046997.7,N
1562559015.2,286046995.3,N
1562559035.1,286046996.1,N
1562559036.0,286046996.1,N
1562559055.8,286046996.0,N
1562559075.6,286046995.6,N
1562559095.5,286046996.2,N
1562559115.3,286046994.9,N
1562559135.2,286046996.7,N
1562559155.0,286046996.9,N
1562559155.9,286046996.9,N
1562559175.7,286046996.9,N
1562559195.6,286046995.2,N
1562559215.4,286046997.8,N
1562559235.3,286046997.7,N
1562559255.1,286046996.0,N
1562559275.8,286046995.9,N
1562559295.7,286046997.6,N
1562559315.5,286046996.5,N
1562559335.4,286046997.1,N
1562559355.2,286046997.5,N
1562559375.0,286046997.7,N
1562559375.9,286046997.7,N
1562559395.8,286046997.2,N
1562559415.6,286046998.2,N
1562559435.5,286046999.0,N
1562559455.3,286046998.2,N
1562559475.1,286046999.0,N
1562559495.9,286046999.2,N
1562559515.7,286046998.9,N
1562559535.6,286046999.6,N
1562559555.4,286046994.9,Y
1562559575.2,286047000.2,P
1562559595.1,286047000.4,N
1562559596.0,286047000.4,N
1562559615.8,286047002.4,N
1562559635.7,286047001.8,N
1562559655.5,286047000.0,N
1562559675.3,286046999.9,N
1562559695.2,286046999.9,N
1562559715.0,286047001.8,N
1562559715.9,286047001.8,N
1562559735.8,286047001.4,N
1562559755.6,286047001.9,N
1562559775.4,286047002.3,N
1562559795.3,286047000.3,N
1562559815.1,286047000.0,N
1562559835.8,286047000.8,N
1562559855.7,286047000.4,N
1562559875.5,286047001.7,N
1562559895.4,286047003.2,N
1562559915.2,286047001.9,N
1562559935.0,286047001.5,N
1562559935.9,286047001.5,N
1562559955.8,286047001.6,N
1562559975.2,286047001.7,N
1562559995.1,286047004.4,Y
1562559996.0,286047004.4,P
1562560015.8,286047003.7,N
1562560035.7,286047002.7,N
1562560055.5,286047002.3,N
1562560075.3,286046999.7,N
1562560095.2,286046999.7,N
1562560115.0,286046999.9,N
1562560115.9,286046999.9,N
1562560135.7,286047002.7,N
1562560155.6,286046999.8,N
1562560175.4,286047000.0,N
1562560195.3,286047002.3,N
1562560215.1,286047001.9,N
1562560216.0,286047001.9,N
1562560235.8,286047001.3,N
1562560255.7,286047002.7,N
1562560275.5,286047001.9,N
1562560295.4,286047003.4,N
1562560315.2,286047005.2,Y
1562560335.0,286047003.9,P
1562560335.9,286047003.9,P
1562560355.8,286047004.3,P
1562560375.6,286047003.7,Y
1562560395.5,286046999.9,P
1562560415.3,286047000.9,N
1562560435.1,286047000.7,N
1562560455.9,286046999.5,N
1562560475.7,286046999.4,N
1562560495.5,286046999.2,N
1562560515.4,286046998.4,N
1562560535.2,286046999.4,N
1562560555.1,286046999.4,N
1562560556.0,286046999.4,N
1562560575.8,286046999.0,N
1562560595.6,286046998.3,N
1562560615.5,286046999.0,N
1562560635.3,286047000.6,N
1562560655.2,286047001.2,N
1562560675.9,286047000.8,N
1562560695.7,286046998.8,N
1562560715.6,286046998.2,N
1562560735.3,286046998.2,N
1562560755.1,286046998.6,N
1562560775.8,286047001.0,N
1562560795.7,286046998.2,N
1562560815.5,286046999.2,N
1562560835.7,286046996.7,N
1562560855.5,286046999.5,N
1562560875.4,286046996.9,N
1562560895.2,286046997.3,N
1562560915.0,286046997.1,N
1562560915.9,286046997.1,N
1562560935.8,286046999.3,N
1562560955.6,286046999.2,N
1562560975.5,286046997.2,N
1562560995.3,286046996.8,N
1562561015.1,286046998.3,N
1562561035.9,286046998.9,N
1562561055.7,286046999.2,N
1562561075.6,286046997.4,N
1562561095.4,286046996.8,N
1562561115.2,286046997.4,N
1562561135.1,286046999.3,N
1562561136.0,286046999.3,N
1562561155.8,286046996.5,N
1562561175.7,286046998.9,N
1562561195.5,286046998.3,N
1562561215.3,286046999.3,N
1562561235.2,286046999.9,N
1562561255.0,286046996.5,Y
1562561255.9,286046996.5,P
1562561275.8,286047001.1,N
1562561295.6,286046998.5,N
1562561315.4,286046999.8,N
1562561335.3,286047000.6,N
1562561355.1,286047000.5,N
1562561375.9,286047001.1,N
1562561395.7,286047002.3,N
1562561415.5,286047000.2,N
1562561435.4,286047000.9,N
1562561455.2,286046999.8,N
1562561475.0,286047001.6,N
1562561475.9,286047001.6,N
1562561495.8,286047001.5,N
1562561515.6,286047001.0,N
1562561535.5,286047000.7,N
1562561555.3,286047000.8,N
1562561575.1,286046998.2,N
1562561595.9,286046998.4,N
1562561615.7,286046999.0,N
1562561635.5,286046999.1,N
1562561655.4,286046996.7,N
1562561675.2,286046997.0,N
1562561695.1,286046999.4,N
1562561696.0,286046999.4,N
1562561715.8,286046999.0,N
1562561735.6,286046996.7,N
1562561755.5,286046999.4,N
1562561775.3,286046998.5,N
1562561795.1,286046996.7,N
1562561815.9,286046997.0,N
1562561835.7,286046998.4,N
1562561855.6,286046998.8,N
1562561875.4,286046998.4,N
1562561895.2,286046996.7,N
1562561915.1,286046996.9,N
1562561916.0,286046996.9,N
1562561935.8,286046996.7,N
1562561955.7,286047000.8,N
1562561975.5,286046998.9,N
1562561995.3,286046998.1,N
